Starlink 32431

operational
NORAD ID: 61256 Int'l Des: 2024-175 Owner: SPXS Country: US Constellation: starlink
LEOCIRCULAR

About Starlink 32431

Description loading...

Live Position

Loading 3D Globe...

Upcoming Passes

Altitude History

Altitude vs Time

uPlot chart will show altitude changes over time

Two-Line Element Set

1 61256U 24175P 25353.61417880 .00001456 00000-0 61281-4 0 9990
2 61256 53.1585 205.9832 0001305 84.5065 275.6084 15.30195019 69196
Epoch: Dec 19, 2025 • Age: 11 hours

Current Status

Altitude 490.8 km
Velocity 7.62 km/s
Sub-Earth Point -44.13°S, 46.97°E
Launch Date Sep 25, 2024
Age 1.2 years
Type internet

Technical Details

Classification Payload
Mass 730.00 kg
Dry Mass 700.00 kg
Total Mass 730.00 kg
Length 0.30 m
Diameter 4.10 m
Span 29.00 m
Shape Box + pan
Manufacturer SPXS
Bus Type Starlink V2M
Phase Status In Orbit
Owner/State SPXS/US

Large Constellations

Loading constellations...